Regional Weather Roundup
Issued by NWS Newport/Morehead, NC

Home | Current Version | Previous Version | Text Only | Print | Product List | Glossary On
Versions: 1 2 3 4 5 6 7 8 9 10 11 12 13 14 15 16 17 18 19 20 21 22 23 24 25 26 27 28 29 30 31 32 33 34 35 36 37 38 39 40 41 42 43 44 45 46 47 48 49 50
000
ASUS42 KMHX 252325
RWRMHX
WEATHER ROUNDUP FOR EASTERN NORTH CAROLINA
NATIONAL WEATHER SERVICE NEWPORT/MOREHEAD CITY NC
600 PM EST SAT FEB 25 2017

NOTE: "FAIR" INDICATES FEW OR NO CLOUDS BELOW 12,000 FEET
WITH NO SIGNIFICANT WEATHER AND/OR OBSTRUCTIONS TO VISIBILITY

NCZ015>017-031-032-045>047-102-103-260000-
NORTH COAST

CITY           SKY/WX    TMP DP  RH WIND       PRES   REMARKS
EDENTON        CLEAR     72  60  66 S16       29.57R
ELIZABETH CITY CLEAR     71  57  61 S14G23    29.55S
KITTY HAWK     NOT AVBL
MANTEO         CLEAR     65  61  87 SW25G31   29.59S

$$

NCZ045>047-081-094-103-104-260000-
CENTRAL COAST

CITY           SKY/WX    TMP DP  RH WIND       PRES   REMARKS
FRISCO         CLEAR     71  64  78 SW17G26   29.64F HAZE

$$

NCZ095-097-098-100-101-260000-
SOUTHERN COAST

CITY           SKY/WX    TMP DP  RH WIND       PRES   REMARKS
BEAUFORT       CLEAR     69  63  81 SW23G30   29.65S
CEDAR ISLAND   NOT AVBL
JACKSONVILLE   CLEAR     70  60  70 S10G20    29.63R
PINEY ISLAND   CLEAR    N/A N/A N/A SW23G35   29.63F
WILMINGTON     CLEAR     68  60  75 SW14G22   29.67R


$$

NCZ011>013-027>030-043-044-078>080-089-090>093-098-260000-
COASTAL PLAIN

CITY           SKY/WX    TMP DP  RH WIND       PRES   REMARKS
AHOSKIE          N/A     73  53  50 SW6       29.55R
CLINTON        CLEAR     74  56  53 SW12G21   29.64R
ELIZABETHTOWN  CLEAR     74  55  51 SW10G16   29.65R
GOLDSBORO      CLEAR     75  53  45 SW14G23   29.58R
GREENVILLE     CLEAR     77  52  41 SW13G18   29.62R
HAVELOCK       NOT AVBL
KENANSVILLE    CLEAR     73  54  49 SW9G16    29.63R
KINSTON        PTCLDY    75  52  43 SW13      29.60R
NEW BERN       CLEAR     70  62  76 S13       29.62S
RICHLANDS      NOT AVBL
ROCKY MOUNT    CLEAR     74  54  49 SW15G25   29.57R
WASHINGTON     CLEAR     72  62  69 SW8       29.58R
WHITEVILLE     CLEAR     75  53  46 SW8       29.67R

$$

AMZ130-135-150-152-154-156-158-170-250-252-270-ANZ085-086-088-633-658-670-260000-
MARINE OBSERVATIONS

STATION/POSITION TIME  TEMP    WIND        PRES    WAVE   SWELL
                       AIR SEA DIR/SP/G            HT/PER HT/PER
                 (UTC) (F)     (DEG/KT/KT) (MB)    (FT/S) (FT/S)
CHESAPEAKE LIGHT NOT AVBL
64 E VA BEACH    2250   59 54  190/ 17/ 21 1000.7    5/11   5/11
DUCK             2300   67 50  190/ 16/ 21 1000.4
2 E DUCK         2300      51                N/A     5/10   2/11
OREGON INLET     2300   63 58  180/ 20/ 23 1002.3
13E OREGON INLT  NOT AVBL
HATTERAS CG      2300   69 64  200/ 14/ 21 1003.3
DIAMOND BUOY     2250   73 76  210/ 25/ 33 1003.5    8/10   7/10
CAPE LOOKOUT     2300   69     210/ 13/ 18 1004.1
BEAUFORT LAB     2300   68 64  210/ 15/ 19 1003.2
30 SE NEW RVR IN 2308   69     220/ 21/ 27 1004.8
30 SE NEW RVR IN 2313      68                N/A     7/10   3/11
27 SE WRIGHTSVLE 2308   68 64  220/ 19/ 27 1004.3
5 SE WRIGHTSVLE  2308   64 59  210/ 14/ 27 1005.1
225 S CAPE HAT   2250   71 71  240/ 12/ 14 1009.9    7/10   7/10
41 SE CHARLESTON 2250   70 71  220/ 21/ 23 1007.1    6/10   5/10

$$



USA.gov is the U.S. government's official web portal to all federal, state and local government web resources and services.